sat.trackr.live / text

‹ back to catalog

STARLINK-35135

NORAD 65629 · 2025-210H

PAYLOAD ACTIVE UNKNOWN

§ Identity

Operator
Country
US
Launch date
2025-09-18
Launch site
AFETR
Launch vehicle
Mass (kg)
RCS (m²)

Purposes: comms

External: N2YO · Heavens-Above · Gunter

§ Orbital elements

Epoch: 2026-09-20T02:14:07.444608Z

Period
93.85 min
Inclination
53.1565°
Eccentricity
0.0001050
Mean motion
15.34400123 rev/d
Perigee alt
462.0 km
Apogee alt
463.4 km
Semi-major
6,840.8 km
B*
4.2140e-4
RAAN
119.9478°
Arg perigee
93.1725°
Mean anomaly
266.9398°
Rev number
5,755

§ Raw data

STARLINK-351351 65629U 25210H   26263.09314172  .00013888  00000+0  42140-3 0  99952 65629  53.1565 119.9478 0001050  93.1725 266.9398 15.34400123 57555

JSON: /api/v1/satellites/65629 · /tle

For live sub-satellite position, see the globe view (requires WebGL).

§ Visibility from observer

Set your observer location to see the next 7 days of passes ≥ 10°. The values pass through the URL so the page stays shareable.

No JS? Fill the form by hand. The geolocation button needs JavaScript.